Regional Weather Roundup
Issued by NWS Cleveland, OH

Home | Current Version | Previous Version | Text Only | Print | Product List | Glossary Off
Versions: 1 2 3 4 5 6 7 8 9 10 11 12 13 14 15 16 17 18 19 20 21 22 23 24 25 26 27 28 29 30 31 32 33 34 35 36 37 38 39 40 41 42 43 44 45 46 47 48 49 50

000
ASUS41 KCLE 232112
RWRCLE
OHIO REGIONAL WEATHER ROUNDUP
NATIONAL WEATHER SERVICE WILMINGTON, OH
500 PM EDT MON OCT 23 2017

NOTE: "FAIR" INDICATES FEW OR NO CLOUDS BELOW 12,000 FEET WITH NO
SIGNIFICANT WEATHER AND/OR OBSTRUCTIONS TO VISIBILITY.

OHZ001>008-015>018-024>027-034-035-043-044-232200-
   NORTHWEST OHIO

CITY           SKY/WX    TMP DP  RH WIND       PRES   REMARKS
DEFIANCE       LGT RAIN  60  56  86 S13G20    29.55F
FINDLAY        LGT RAIN  63  57  81 S20       29.58F
TOLEDO EXPRESS LGT RAIN  63  63 100 S10       29.55F
TOLEDO EXEC    CLOUDY    64  60  87 S15       29.57F
LIMA           LGT RAIN  61  59  93 S13       29.60F
$$

OHZ009>014-019>023-028>033-038-089-232200-
   NORTHEAST OHIO

CITY           SKY/WX    TMP DP  RH WIND       PRES   REMARKS
CLE-HOPKINS    CLOUDY    66  60  81 SE18G28   29.64F
CLE-LAKEFRONT  PTSUNNY   66  59  78 SE16G28   29.60F
CUY CO. ARPT   CLOUDY    66  61  82 SE16G25   29.64F
LORAIN-ELYRIA  LGT RAIN  64  56  75 S17G26    29.62F
ASHTABULA      LGT RAIN  62  61  96 SE14G21   29.74F FOG
AKRON-CANTON   CLOUDY    64  59  83 SE23G37   29.65F
WOOSTER        LGT RAIN  63  60  90 S15G24    29.65S
MANSFIELD      CLOUDY    59  58  96 S14       29.66F
YOUNGSTOWN     LGT RAIN  62  60  93 SE21G30   29.70F FOG
$$

OHZ042-051>053-060>062-070>072-077>081-232200-
  SOUTHWEST OHIO

CITY           SKY/WX    TMP DP  RH WIND       PRES   REMARKS
CINC-COVINGTON PTSUNNY   62  61  96 S9        29.66F
CINC-LUNKEN    CLOUDY    63  61  93 S7        29.67F
HAMILTON       CLOUDY    61  59  93 SE5       29.66F
DAYTON         LGT RAIN  60  59  96 S10       29.64F
WRIGHT-PAT AFB DRIZZLE   61  61  99 S6        29.63F
DAYTON GENERAL LGT RAIN  59  56  89 SW10      29.65F
WILMINGTON     LGT RAIN  58  57  97 SE9       29.65F
$$

OHZ036-037-039>041-045>050-054>059-063>069-073>076-082>088-232200-
  CENTRAL AND SOUTHEAST OHIO

CITY           SKY/WX    TMP DP  RH WIND       PRES   REMARKS
COLUMBUS       LGT RAIN  63  59  87 S10       29.69F
OSU AIRPORT    LGT RAIN  62  59  90 S10       29.67F
BOLTON FIELD   CLOUDY    61  57  88 S12G20    29.68F
RICKENBACK AFB CLOUDY    60  58  93 S14       29.69F
NEWARK         CLOUDY    62  56  80 S12G18    29.71S
MARION         CLOUDY    62  57  83 S15       29.65F
LANCASTER      LGT RAIN  61 N/A N/A S10       29.71F
ZANESVILLE     CLOUDY    60  57  89 S10       29.74R
NEW PHILLY     LGT RAIN  60  57  89 SW14G26   29.74R FOG
$$




USA.gov is the U.S. government's official web portal to all federal, state and local government web resources and services.